Weather History for Pampa, TX

Change the Weather History Date:

Monday, August 12, 2013

  Actual Average Record
Temperature  
Mean Temperature 77 °F -  
Max Temperature 90 °F 87 °F 101 °F (1969)
Min Temperature 65 °F 63 °F 52 °F (1968)
Cooling Degree Days 12    
Growing Degree Days 27 (Base 50)    
Moisture  
Dew Point 62 °F    
Average Humidity 71    
Maximum Humidity 95    
Minimum Humidity 32    
Precipitation  
Precipitation 0.00 in - - ()
Sea Level Pressure  
Sea Level Pressure 30.12 in    
Wind  
Wind Speed 11 mph (SW)    
Max Wind Speed 20 mph    
Max Gust Speed 25 mph    
Visibility 10 miles    
Events Rain , Thunderstorm    
Averages and records for this station are not official NWS values.
T = Trace of Precipitation, MM = Missing Value Source: NWS Daily Summary

Daily Weather History Graph

Daily Weather History Graph

Search for Another Location

Airport:

Trip Planner

Search our weather history database for the weather conditions in past years. The results will help you decide how hot, cold, wet, or windy it might be!

Date:

Astronomy

Aug. 12, 2013 Rise Set
Actual Time 7:00 AM CDT 8:36 PM CDT
Civil Twilight 6:33 AM CDT 9:03 PM CDT
Nautical Twilight 6:00 AM CDT 9:36 PM CDT
Astronomical Twilight 5:26 AM CDT 10:10 PM CDT
Moon 12:39 PM CDT (8/12) 11:45 PM CDT (8/12)
Length of Visible Light 14h 29m
Length of Day
13h 35m
Waxing Crescent, 31% of the Moon is Illuminated
Aug 12
Waxing Crescent
Aug 14
First Quarter
Aug 20
Full
Aug 28
Last Quarter
Sep 5
New

Hourly Weather History & Observations

Time (CDT) Temp. Heat Index Dew Point Humidity Pressure Visibility Wind Dir Wind Speed Gust Speed Precip Events Conditions
2:15 AM 68.0 °F - 63.9 °F 87% 30.14 in 10.0 mi South 9.2 mph - N/A   Mostly Cloudy
2:35 AM 67.5 °F - 63.9 °F 88% 30.14 in 10.0 mi South 9.2 mph - N/A   Scattered Clouds
2:55 AM 67.5 °F - 63.7 °F 88% 30.14 in 10.0 mi South 9.2 mph - N/A   Scattered Clouds
3:15 AM 67.6 °F - 63.7 °F 87% 30.14 in 10.0 mi South 11.5 mph - N/A   Scattered Clouds
3:35 AM 67.5 °F - 63.9 °F 88% 30.14 in 10.0 mi South 11.5 mph - N/A   Scattered Clouds
3:55 AM 67.1 °F - 63.9 °F 89% 30.14 in 10.0 mi South 11.5 mph - N/A   Clear
4:15 AM 67.1 °F - 63.7 °F 89% 30.14 in 10.0 mi South 12.7 mph - N/A   Clear
4:35 AM 66.9 °F - 63.9 °F 90% 30.14 in 10.0 mi South 10.4 mph - N/A   Clear
4:55 AM 66.9 °F - 64.0 °F 90% 30.13 in 10.0 mi South 13.8 mph - N/A   Clear
5:15 AM 66.6 °F - 64.0 °F 92% 30.13 in 10.0 mi South 12.7 mph - N/A   Clear
5:35 AM 66.4 °F - 64.0 °F 92% 30.12 in 7.0 mi South 12.7 mph - N/A   Clear
5:55 AM 66.2 °F - 64.4 °F 94% 30.12 in 7.0 mi South 10.4 mph - N/A   Clear
6:15 AM 66.2 °F - 64.0 °F 93% 30.12 in 5.0 mi South 11.5 mph - N/A   Clear
6:35 AM 65.8 °F - 64.0 °F 94% 30.12 in 5.0 mi South 11.5 mph - N/A   Clear
6:55 AM 65.7 °F - 64.0 °F 94% 30.12 in 5.0 mi South 12.7 mph - N/A   Clear
7:15 AM 65.8 °F - 64.4 °F 95% 30.12 in 7.0 mi South 12.7 mph - N/A   Clear
7:35 AM 66.2 °F - 64.4 °F 94% 30.12 in 7.0 mi South 12.7 mph - N/A   Clear
8:35 AM 70.2 °F - 65.7 °F 86% 30.14 in 10.0 mi SW 11.5 mph 18.4 mph N/A   Clear
8:55 AM 71.6 °F - 65.7 °F 81% 30.14 in 10.0 mi WSW 11.5 mph - N/A   Clear
9:15 AM 73.2 °F - 65.5 °F 77% 30.16 in 10.0 mi WSW 11.5 mph 18.4 mph N/A   Clear
9:35 AM 74.5 °F - 65.5 °F 73% 30.16 in 10.0 mi WSW 15.0 mph - N/A   Clear
9:55 AM 75.7 °F - 65.5 °F 70% 30.16 in 10.0 mi WSW 13.8 mph - N/A   Clear
10:15 AM 78.8 °F - 64.4 °F 61% 30.16 in 10.0 mi WSW 15.0 mph - N/A   Clear
10:35 AM 79.9 °F - 63.5 °F 57% 30.16 in 10.0 mi WSW 16.1 mph 20.7 mph N/A   Clear
10:55 AM 78.8 °F - 62.8 °F 58% 30.16 in 10.0 mi West 15.0 mph - N/A   Clear
11:15 AM 79.9 °F - 62.6 °F 55% 30.15 in 10.0 mi West 11.5 mph - N/A   Clear
11:35 AM 81.0 °F 81.7 °F 60.8 °F 50% 30.16 in 10.0 mi West 12.7 mph - N/A   Clear
11:55 AM 79.9 °F - 60.1 °F 51% 30.16 in 10.0 mi West 9.2 mph - N/A   Clear
12:15 PM 81.1 °F 81.6 °F 59.7 °F 48% 30.15 in 10.0 mi WNW 9.2 mph - N/A   Clear
12:35 PM 82.2 °F 82.7 °F 60.8 °F 48% 30.14 in 10.0 mi WNW 9.2 mph - N/A   Clear
12:55 PM 84.4 °F 84.0 °F 59.0 °F 42% 30.14 in 10.0 mi WNW 15.0 mph - N/A   Clear
1:15 PM 86.0 °F 85.0 °F 57.7 °F 38% 30.13 in 10.0 mi West 13.8 mph - N/A   Clear
1:35 PM 87.3 °F 86.1 °F 57.2 °F 36% 30.13 in 10.0 mi West 15.0 mph 19.6 mph N/A   Clear
1:55 PM 88.7 °F 87.1 °F 56.5 °F 33% 30.13 in 10.0 mi West 12.7 mph - N/A   Clear
2:15 PM 88.9 °F 87.3 °F 56.1 °F 33% 30.12 in 10.0 mi West 11.5 mph 16.1 mph N/A   Scattered Clouds
2:35 PM 88.5 °F 86.9 °F 55.9 °F 33% 30.11 in 10.0 mi WNW 8.1 mph - N/A   Clear
2:55 PM 89.6 °F 87.9 °F 56.5 °F 32% 30.10 in 10.0 mi West 6.9 mph - N/A   Clear
3:15 PM 88.0 °F 86.3 °F 55.6 °F 33% 30.09 in 10.0 mi WNW 3.5 mph - N/A   Scattered Clouds
3:35 PM 86.2 °F 85.2 °F 57.7 °F 38% 30.09 in 10.0 mi WSW 5.8 mph - N/A   Mostly Cloudy
3:55 PM 84.0 °F 84.2 °F 60.8 °F 45% 30.09 in 10.0 mi WSW 19.6 mph 25.3 mph N/A   Overcast
4:15 PM 79.0 °F - 63.5 °F 59% 30.09 in 10.0 mi WSW 15.0 mph - N/A   Light Drizzle
4:35 PM 74.8 °F - 64.2 °F 69% 30.09 in 10.0 mi WSW 11.5 mph - N/A Rain , Thunderstorm Light Thunderstorms and Rain
4:55 PM 72.7 °F - 65.5 °F 78% 30.09 in 10.0 mi West 5.8 mph - N/A Rain Light Rain
5:15 PM 72.7 °F - 65.3 °F 78% 30.11 in 10.0 mi West 15.0 mph 18.4 mph N/A Rain Light Rain
5:35 PM 70.0 °F - 64.0 °F 81% 30.11 in 10.0 mi SW 10.4 mph - N/A Rain Rain
5:55 PM 71.2 °F - 65.3 °F 81% 30.12 in 10.0 mi South 10.4 mph - N/A   Mostly Cloudy
6:15 PM 72.0 °F - 64.0 °F 76% 30.12 in 10.0 mi South 11.5 mph - N/A   Scattered Clouds
6:35 PM 74.5 °F - 65.1 °F 72% 30.11 in 10.0 mi South 13.8 mph - N/A   Scattered Clouds
6:55 PM 74.3 °F - 63.9 °F 70% 30.12 in 10.0 mi South 10.4 mph - N/A   Scattered Clouds
7:35 PM 74.3 °F - 60.8 °F 63% 30.11 in 10.0 mi South 10.4 mph - N/A   Clear
7:55 PM 73.2 °F - 60.6 °F 65% 30.11 in 10.0 mi South 12.7 mph - N/A   Scattered Clouds
8:15 PM 72.0 °F - 60.6 °F 67% 30.12 in 10.0 mi SSW 6.9 mph - N/A   Scattered Clouds
8:35 PM 70.5 °F - 61.7 °F 74% 30.10 in 10.0 mi SW 5.8 mph - N/A   Scattered Clouds
8:55 PM 70.3 °F - 61.9 °F 74% 30.10 in 10.0 mi NW 5.8 mph - N/A   Clear
9:15 PM 70.5 °F - 61.0 °F 72% 30.10 in 10.0 mi Calm Calm - N/A   Clear
9:35 PM 70.0 °F - 61.9 °F 75% 30.10 in 10.0 mi Calm Calm - N/A   Clear
9:55 PM 68.4 °F - 62.2 °F 81% 30.10 in 10.0 mi NNE 4.6 mph - N/A   Clear
10:15 PM 67.6 °F - 62.4 °F 83% 30.10 in 10.0 mi East 5.8 mph - N/A   Scattered Clouds
10:35 PM 67.3 °F - 63.5 °F 88% 30.10 in 10.0 mi East 3.5 mph - N/A   Scattered Clouds
10:55 PM 67.5 °F - 63.5 °F 87% 30.10 in 10.0 mi East 3.5 mph - N/A   Scattered Clouds
11:15 PM 67.3 °F - 62.6 °F 85% 30.10 in 10.0 mi SE 5.8 mph - N/A   Scattered Clouds
11:55 PM 67.1 °F - 62.6 °F 85% 30.10 in 10.0 mi SE 6.9 mph - N/A   Clear